Date,TemperatureHighF,TemperatureAvgF,TemperatureLowF,DewpointHighF,DewpointAvgF,DewpointLowF,HumidityHigh,HumidityAvg,HumidityLow,PressureMaxIn,PressureMinIn,WindSpeedMaxMPH,WindSpeedAvgMPH,GustSpeedMaxMPH,PrecipitationSumIn
2012-1-1,60.8,56.1,49.2,49.7,43.9,34.1,77,64,50,23.27,23.27,17,4,17,0.00
2012-1-2,50.8,40.3,33.2,34.1,23.0,19.3,61,50,44,23.27,23.27,22,5,22,0.00
2012-1-3,33.7,29.3,22.8,21.0,14.9,5.3,70,55,36,23.28,23.25,27,6,27,0.00
2012-1-4,36.2,27.1,17.9,21.4,12.7,4.1,65,54,50,23.25,23.25,17,2,17,0.00
2012-1-5,50.8,39.7,30.8,30.7,26.6,19.5,75,60,44,23.25,23.25,19,2,19,0.00
2012-1-6,65.0,48.6,32.7,39.2,33.2,25.7,78,57,38,23.25,23.25,14,2,14,0.00
2012-1-7,67.4,52.2,37.0,48.5,37.8,30.4,78,59,45,23.25,23.25,17,2,17,0.00
2012-1-8,53.3,46.7,38.9,34.7,31.8,27.7,69,56,45,23.25,23.25,18,2,18,0.00
2012-1-9,40.2,36.3,34.3,33.6,30.3,25.2,92,80,63,23.25,23.25,6,1,6,0.05
2012-1-10,54.9,40.8,31.9,38.0,33.9,30.0,93,78,49,23.25,23.25,14,2,17,0.08
2012-1-11,50.5,40.3,31.5,48.6,37.2,28.6,93,89,81,23.25,23.25,14,2,14,0.60
2012-1-12,60.7,52.2,44.0,50.6,46.9,41.3,93,83,68,23.25,23.25,13,3,14,0.75
2012-1-13,53.9,39.7,30.9,47.5,26.0,18.9,86,59,43,23.25,23.25,31,6,31,0.03
2012-1-14,38.9,33.0,27.2,21.9,19.4,16.9,69,57,48,30.06,23.25,15,3,15,0.00
2012-1-15,36.4,31.0,24.7,18.7,16.2,12.5,69,55,38,31.70,30.06,18,3,18,0.00
2012-1-16,42.4,33.4,22.4,34.1,22.6,15.1,80,65,50,32.45,31.69,20,3,20,0.03
2012-1-17,60.4,50.9,39.7,52.8,43.8,33.4,92,77,65,31.70,31.70,23,5,23,0.32
2012-1-18,58.4,42.7,29.9,52.6,28.1,18.2,82,57,44,31.70,31.70,11,7,29,0.00
2012-1-19,40.7,35.5,23.8,27.8,22.1,16.4,75,58,50,32.46,23.25,15,3,15,0.00
2012-1-20,40.8,35.3,28.4,29.5,21.0,12.7,87,57,41,32.46,32.46,17,3,17,0.00
2012-1-21,34.1,32.2,28.3,30.5,28.6,24.4,91,86,80,32.46,32.46,15,3,15,0.03
2012-1-22,34.2,32.6,31.6,30.9,27.6,25.7,88,82,78,32.46,32.46,11,1,11,0.01
2012-1-23,44.3,36.8,32.3,42.7,34.8,29.1,94,92,88,32.46,32.46,15,2,15,0.24
2012-1-24,60.1,48.5,40.4,47.3,42.5,36.5,94,81,57,32.46,32.46,11,2,11,0.00
2012-1-25,51.6,45.3,38.2,37.9,35.1,31.8,78,68,55,32.46,32.46,18,2,18,0.00
2012-1-26,56.4,49.4,41.8,52.3,43.2,35.0,89,79,71,32.46,32.46,10,2,10,0.00
2012-1-27,66.0,56.9,44.1,60.0,48.3,31.8,92,74,54,32.46,32.46,29,5,29,0.49
2012-1-28,56.4,45.3,33.4,38.2,31.6,20.6,85,61,36,32.46,32.46,21,4,22,0.00
2012-1-29,49.7,41.8,31.0,31.5,19.9,15.5,69,42,30,32.46,32.46,21,3,21,0.00
2012-1-30,50.0,41.7,34.1,28.1,22.0,19.2,63,46,32,32.46,32.46,19,3,20,0.00
2012-1-31,66.6,53.5,40.8,38.7,33.5,24.9,64,48,34,32.46,32.46,17,3,17,0.00
2012-2-1,72.3,59.7,50.3,52.1,45.3,37.2,75,60,44,32.46,32.46,7,2,15,0.03
2012-2-2,59.8,52.1,43.7,50.9,43.4,31.9,91,73,54,32.46,32.46,22,4,22,0.11
2012-2-3,53.1,43.8,36.2,35.5,31.9,29.0,79,63,49,32.46,32.46,16,2,17,0.00
2012-2-4,46.6,39.8,32.9,37.3,34.6,29.3,89,82,67,32.46,32.46,9,1,9,0.08
2012-2-5,45.4,40.4,34.4,36.3,33.3,29.2,90,76,63,32.46,32.46,15,2,15,0.01
2012-2-6,54.1,41.5,30.1,34.3,31.0,26.8,89,68,45,32.46,32.46,15,2,15,0.00
2012-2-7,58.1,49.0,41.4,37.7,34.0,30.6,70,56,45,0.00,40.00,14,2,15,0.00
2012-2-8,44.3,39.4,35.8,36.3,32.7,28.5,89,77,63,0.00,40.00,10,2,11,0.10
2012-2-9,48.5,40.2,33.4,34.2,27.9,23.8,89,63,43,32.46,32.46,16,3,16,0.00
2012-2-10,47.7,41.9,32.9,37.3,30.1,23.9,80,63,49,32.46,32.46,11,2,11,0.00
2012-2-11,45.1,36.0,23.4,36.4,28.7,13.4,90,76,52,32.46,30.06,38,6,38,0.13
2012-2-12,33.2,27.7,22.9,18.3,14.3,11.8,82,57,46,32.46,23.28,34,8,34,0.00
2012-2-13,48.8,37.1,24.0,26.0,19.7,13.5,70,51,35,31.71,31.71,16,2,16,0.00
2012-2-14,54.6,46.3,37.9,35.7,30.6,23.4,65,54,46,31.71,31.71,16,2,16,0.00
2012-2-15,56.9,48.5,42.4,37.4,35.1,32.5,70,60,45,31.71,31.71,24,3,24,0.00
2012-2-16,47.0,44.5,41.3,43.4,38.5,32.9,91,80,69,31.71,31.71,10,1,10,0.12
2012-2-17,55.4,47.3,39.8,42.8,35.9,30.5,94,67,42,31.71,31.71,21,3,21,0.00
2012-2-18,60.0,47.4,32.0,39.9,33.1,27.2,84,59,44,31.71,31.71,22,3,22,0.00
2012-2-19,47.5,41.4,34.4,34.0,28.7,24.1,90,61,46,31.71,31.71,20,2,20,0.09
2012-2-20,51.2,41.0,34.2,34.6,27.8,24.6,90,60,42,31.71,31.71,18,4,18,0.03
2012-2-21,50.4,40.8,28.8,38.6,31.2,23.8,85,69,53,31.71,31.71,22,3,22,0.00
2012-2-22,63.2,53.5,42.3,44.6,39.4,36.8,83,61,41,31.71,31.71,21,3,21,0.00
2012-2-23,67.0,57.3,47.4,47.7,44.6,41.5,87,64,43,31.71,31.71,16,3,16,0.00
2012-2-24,57.5,53.1,46.0,55.1,46.1,30.7,93,78,46,31.71,31.71,33,4,33,0.29
2012-2-25,47.2,41.9,37.3,30.9,24.3,19.0,69,50,39,31.71,31.71,33,8,33,0.00
2012-2-26,50.2,41.5,34.0,30.3,24.5,20.5,72,51,38,31.71,31.71,22,3,22,0.00
2012-2-27,65.3,49.4,32.5,43.2,34.1,27.6,84,58,36,31.71,31.71,18,3,18,0.00
2012-2-28,59.0,49.2,41.1,42.8,29.8,26.6,72,48,33,31.71,31.71,23,3,23,0.00
2012-2-29,57.4,46.8,40.3,55.7,42.5,30.0,94,85,60,31.71,31.71,16,2,16,1.25
2012-3-1,71.6,58.9,46.8,58.0,44.9,34.6,94,63,40,31.71,31.71,20,4,20,0.01
2012-3-2,55.9,46.7,38.1,46.0,39.0,32.2,93,76,52,31.71,31.71,17,2,17,0.25
2012-3-3,63.0,53.6,47.5,49.2,40.5,27.7,94,66,32,31.71,31.71,18,3,18,0.13
2012-3-4,51.9,44.8,37.4,32.6,27.4,22.6,61,51,40,31.71,31.71,25,6,25,0.00
2012-3-5,45.4,38.1,31.8,32.0,25.0,19.5,72,59,47,31.71,31.71,21,4,21,0.00
2012-3-6,48.6,39.7,29.0,33.7,25.2,19.5,75,57,43,31.71,31.71,17,2,17,0.00
2012-3-7,67.5,53.9,40.0,49.5,39.3,30.1,71,58,42,31.71,31.71,21,5,21,0.00
2012-3-9,58.2,49.1,42.9,46.9,27.8,24.1,66,44,39,31.71,31.71,20,5,20,0.00
2012-3-10,50.4,41.9,35.2,26.4,22.3,19.5,62,46,33,31.71,31.71,19,3,19,0.00
2012-3-11,64.1,49.2,34.3,37.9,32.5,24.4,75,54,37,31.71,31.71,15,3,15,0.00
2012-3-12,72.2,59.2,44.9,54.6,42.5,33.8,70,55,40,31.71,31.71,19,2,19,0.00
2012-3-13,81.5,69.1,58.4,60.3,55.8,51.8,85,64,44,31.71,31.71,19,3,19,0.01
2012-3-14,81.7,68.9,57.1,53.8,50.7,47.8,76,54,33,31.71,31.71,15,2,15,0.00
2012-3-15,85.3,68.3,54.9,59.2,52.7,47.8,79,60,34,31.71,31.71,16,2,16,0.00
2012-3-16,61.2,56.2,52.3,54.7,51.5,48.6,91,84,75,31.71,31.71,12,2,12,0.01
2012-3-17,75.7,62.2,50.2,60.5,54.9,48.3,94,78,56,31.71,31.71,14,2,14,0.00
2012-3-18,68.7,58.5,52.2,57.8,53.5,50.2,94,84,68,31.71,31.71,12,2,12,0.00
2012-3-19,75.5,61.6,55.1,62.0,55.9,52.4,92,82,61,31.71,31.71,13,2,13,0.00
2012-3-27,58.1,51.5,45.0,31.1,26.5,22.3,58,39,26,31.71,31.71,10,1,10,0.00
2012-3-28,75.2,60.9,45.0,60.9,44.8,28.4,70,56,45,31.71,31.71,17,4,17,0.01
2012-3-29,70.3,61.8,51.3,57.5,43.4,37.0,69,51,44,31.71,31.71,26,5,26,0.00
2012-3-30,56.6,50.0,41.6,44.2,39.2,33.9,83,66,58,31.71,31.71,11,2,11,0.00
2012-3-31,67.0,55.2,48.9,53.8,48.0,42.6,89,77,61,32.45,21.74,17,3,17,0.00
2012-4-1,63.8,54.4,47.2,52.6,45.8,42.1,88,73,58,32.45,23.25,14,2,14,0.02
2012-4-2,62.9,56.3,49.1,55.0,39.4,34.5,91,55,36,31.70,23.27,22,4,28,0.14
2012-4-3,75.0,57.8,41.2,40.0,35.0,28.1,75,46,24,23.28,23.28,12,2,13,0.00
2012-4-4,77.8,65.2,52.3,57.2,47.0,33.8,71,53,32,23.28,23.28,18,3,18,0.00
2012-4-5,65.0,56.0,46.5,38.3,34.6,31.3,68,45,33,23.28,23.27,15,2,15,0.00
2012-4-6,63.2,52.3,42.8,37.1,31.9,27.9,76,47,30,30.05,23.24,19,3,19,0.00
2012-4-7,67.8,55.3,41.4,32.5,28.4,25.0,55,37,26,32.45,22.52,20,4,20,0.00
2012-4-8,75.2,60.7,42.8,43.2,34.8,27.1,57,39,27,32.45,23.24,23,4,23,0.00
2012-4-9,69.3,60.8,53.3,43.0,37.4,28.8,60,42,34,32.45,21.63,32,6,32,0.00
2012-4-10,68.5,56.9,46.3,42.9,36.8,28.9,75,50,29,32.45,22.49,22,4,22,0.00
2012-4-11,54.4,46.9,40.5,38.2,31.8,27.7,70,56,44,32.45,20.99,24,5,24,0.02
2012-4-12,61.1,53.4,41.6,39.2,35.7,33.6,75,52,37,32.45,23.28,20,4,20,0.00
2012-4-13,67.8,55.0,43.8,39.5,36.3,33.5,72,51,33,32.45,23.24,17,2,17,0.00
2012-4-14,75.2,61.7,44.3,49.4,42.9,37.1,81,53,30,32.45,21.74,19,2,20,0.00
2012-4-15,85.5,72.3,60.2,60.2,55.1,48.4,72,55,42,30.05,22.25,17,2,17,0.00
2012-4-16,88.3,76.2,63.4,66.6,62.2,58.5,86,64,44,32.43,22.49,18,3,18,0.00
2012-4-17,77.7,70.1,57.9,62.4,49.2,40.1,72,49,30,32.44,23.24,22,3,22,0.00
2012-4-18,62.8,56.8,51.9,49.5,45.7,40.9,90,68,48,32.45,23.24,7,1,9,0.05
2012-4-19,71.3,59.5,48.4,53.4,50.6,46.2,93,74,52,32.44,23.24,9,1,9,0.02
2012-4-20,72.3,61.5,49.3,57.8,53.4,46.7,93,76,58,32.44,21.77,15,2,15,0.00
2012-4-21,80.6,65.5,57.4,63.2,57.8,52.4,92,78,46,32.44,30.93,24,3,24,0.23
2012-4-22,58.0,51.3,47.0,52.6,47.8,43.6,91,88,82,32.02,23.24,25,4,25,1.17
2012-4-23,48.7,44.4,41.1,43.5,39.7,37.4,89,84,69,32.34,23.25,20,5,20,0.07
2012-4-24,63.3,52.2,41.4,40.7,35.8,30.3,90,57,31,32.34,23.25,22,3,22,0.00
2012-4-25,71.3,56.2,39.9,44.0,39.1,35.5,92,57,31,32.45,23.25,18,2,18,0.00
2012-4-26,66.1,59.7,55.1,59.9,54.1,43.0,92,82,64,32.03,30.05,11,2,11,0.04
2012-4-27,65.5,57.7,49.9,58.0,39.2,34.3,78,51,35,30.05,23.27,23,5,23,0.00
2012-4-28,55.7,49.5,41.5,46.5,37.3,29.7,91,65,38,30.05,23.27,10,1,10,0.08
2012-4-29,73.5,57.1,45.2,46.8,44.8,41.3,93,68,33,23.28,23.28,13,2,13,0.12
2012-4-30,66.7,57.3,46.9,55.3,46.1,35.1,90,67,51,23.28,23.28,12,2,12,0.00
2012-5-1,82.8,70.5,59.8,67.2,61.6,50.0,93,75,56,23.28,23.28,15,2,15,0.14
2012-5-2,75.7,67.3,59.1,66.9,62.4,55.2,93,84,72,23.28,23.28,14,2,14,0.04
2012-5-3,80.8,66.8,56.1,68.9,60.6,53.6,93,81,63,23.28,23.28,11,2,11,0.00
2012-5-4,83.8,71.9,64.8,70.8,65.4,62.1,92,81,59,23.28,23.28,21,2,21,0.20
2012-5-5,82.8,70.9,62.3,71.8,65.1,60.6,95,83,62,23.28,23.28,13,2,13,0.04
2012-5-6,71.3,66.0,60.8,62.1,59.8,57.8,91,81,71,23.28,23.28,12,2,12,0.00
2012-5-7,71.3,63.4,56.9,58.1,54.6,47.5,92,74,57,23.28,23.28,17,3,17,0.00
2012-5-8,72.4,66.8,59.8,65.9,59.9,47.6,89,78,60,23.28,23.28,17,3,17,0.04
2012-5-9,76.0,67.2,58.1,66.3,61.5,55.7,94,83,60,23.28,23.28,18,2,18,0.51
2012-5-10,69.7,61.1,53.4,56.3,49.1,44.6,93,67,44,23.28,23.28,24,4,24,0.01
2012-5-11,74.9,62.1,47.8,46.5,43.5,39.2,83,53,32,23.28,23.28,18,3,18,0.00
2012-5-12,79.0,65.7,48.3,55.9,48.9,41.2,85,58,29,23.28,23.28,13,2,13,0.00
2012-5-13,80.1,70.2,60.1,62.3,58.2,53.0,81,66,52,26.51,23.27,15,2,15,0.00
2012-5-14,70.7,65.7,61.4,64.5,61.8,58.4,94,88,69,30.04,23.27,12,2,15,0.31
2012-5-15,79.7,70.7,64.4,68.9,65.6,62.3,95,85,65,32.43,23.27,11,2,11,0.79
2012-5-16,83.6,72.8,62.5,66.2,63.4,58.8,96,75,46,32.44,23.25,11,2,11,0.01
2012-5-17,77.8,68.8,56.5,63.8,53.7,45.3,88,61,34,32.43,23.24,16,2,16,0.00
2012-5-18,76.7,64.5,50.4,53.8,50.6,47.3,91,63,41,23.27,23.27,14,2,14,0.00
2012-5-19,84.2,68.1,51.0,58.9,51.9,45.5,85,58,38,23.27,23.27,12,1,12,0.00
2012-5-20,81.5,70.3,54.9,64.6,56.6,48.4,87,64,41,23.27,23.27,16,3,18,0.00
2012-5-21,73.0,68.1,64.9,68.3,65.1,62.8,94,90,81,30.94,23.27,15,2,15,0.20
2012-5-22,77.9,70.0,65.1,68.1,65.2,63.3,94,85,70,30.94,30.94,8,2,8,0.11
2012-5-23,80.3,70.5,64.5,69.4,65.5,62.4,94,85,67,30.94,30.94,11,1,11,0.22
2012-5-24,82.3,72.8,65.2,69.0,66.3,62.4,95,81,62,30.94,30.94,15,2,15,0.00
2012-5-25,84.8,76.1,69.1,72.6,69.6,66.3,94,81,64,32.43,30.94,11,2,11,0.01
2012-5-26,85.8,77.2,68.9,74.0,70.2,67.1,94,80,62,32.43,32.02,12,2,12,0.00
2012-5-27,85.7,76.9,68.6,72.5,69.1,65.7,93,78,60,32.02,30.79,25,2,29,0.13
2012-5-28,91.5,75.9,66.9,76.4,68.9,64.0,93,80,56,32.02,31.97,14,2,14,0.00
2012-5-29,71.3,69.3,66.6,69.5,66.5,62.4,94,91,82,30.42,30.42,6,2,7,0.00
2012-5-30,82.7,78.7,69.0,67.4,65.3,63.0,83,64,55,30.42,30.42,6,1,6,0.00
2012-5-31,85.8,76.2,68.0,64.3,60.2,57.2,82,59,40,30.42,30.42,15,2,15,0.00
2012-6-1,80.8,71.6,67.0,71.6,65.9,57.0,94,83,67,30.42,30.42,17,2,17,1.18
2012-6-2,75.8,67.4,57.9,65.5,55.5,51.2,95,68,45,30.42,22.53,21,2,21,0.00
2012-6-3,79.5,68.0,54.2,58.2,54.7,50.4,88,64,45,32.47,21.79,16,3,16,0.00
2012-6-4,76.5,69.7,61.0,57.2,54.6,51.8,79,60,45,32.43,23.28,21,4,21,0.00
2012-6-5,71.4,63.4,57.1,55.8,53.4,50.8,88,71,52,32.43,23.28,13,2,13,0.01
2012-6-6,74.8,64.4,53.5,57.8,54.2,50.6,91,71,50,32.43,26.54,17,2,17,0.00
2012-6-7,82.8,69.5,55.8,59.8,56.7,52.9,91,66,43,32.43,31.67,14,2,14,0.00
2012-6-8,85.8,73.2,57.3,60.5,56.9,52.2,84,59,36,32.43,31.59,18,2,18,0.00
2012-6-9,90.8,79.2,64.6,63.6,60.0,55.5,78,54,33,32.43,31.18,13,3,14,0.00
2012-6-10,91.8,80.1,63.9,66.3,63.3,59.5,87,59,40,32.43,23.30,13,1,13,0.00
2012-6-11,86.7,78.3,67.7,69.2,66.5,64.0,89,68,52,30.48,22.93,15,2,15,0.00
2012-6-12,76.4,73.1,68.7,73.2,69.8,66.1,94,90,71,32.42,22.33,13,2,13,0.31
2012-6-13,83.3,74.6,68.6,69.4,61.1,53.6,93,66,39,0.00,40.00,15,4,20,0.00
2012-6-14,79.9,72.8,66.1,66.4,61.4,56.0,80,68,59,32.42,31.18,15,2,15,0.00
2012-6-15,80.3,71.7,61.9,62.8,60.2,57.2,92,69,49,31.18,31.18,15,2,15,0.00
2012-6-16,80.9,69.9,57.5,59.8,56.9,53.1,89,65,46,31.18,31.18,16,2,16,0.00
2012-6-17,75.8,66.9,55.0,62.4,57.9,52.0,90,73,61,31.18,31.18,12,2,12,0.00
2012-6-18,68.9,65.2,61.3,64.4,60.9,57.8,93,86,80,31.18,31.18,9,2,9,0.25
2012-6-19,89.6,77.1,67.1,75.9,69.3,63.2,89,78,60,31.18,31.18,9,2,9,0.00
2012-6-20,97.5,85.2,72.9,75.6,72.8,70.2,93,69,45,31.18,31.18,12,2,12,0.00
2012-6-21,99.0,87.5,75.7,75.3,72.8,69.8,85,64,43,32.42,31.18,12,2,12,0.00
2012-6-22,96.7,84.3,71.8,74.7,71.8,66.7,89,68,42,32.43,23.28,20,2,20,0.02
2012-6-23,91.5,79.7,69.2,69.8,65.7,60.5,93,66,39,32.45,22.51,14,2,14,0.00
2012-6-24,89.8,79.6,65.7,70.0,65.2,60.9,86,63,45,32.43,22.67,14,2,14,0.00
2012-6-25,87.5,78.4,70.9,71.8,63.7,50.2,89,63,36,32.43,22.53,21,4,21,0.00
2012-6-26,81.9,71.5,60.7,55.6,52.3,47.4,65,52,40,32.43,22.53,20,3,23,0.00
2012-6-27,89.5,77.9,61.7,62.2,57.7,51.7,70,51,37,32.43,21.79,20,4,20,0.00
2012-6-28,92.6,81.2,65.8,67.0,63.0,58.3,77,56,39,32.42,22.54,15,2,15,0.00
2012-6-29,102.8,89.2,72.3,79.6,73.6,65.3,91,61,47,32.43,23.28,37,3,37,0.66
2012-6-30,94.3,82.4,69.7,73.7,70.5,67.5,94,70,47,32.41,17.16,14,2,14,0.02
2012-7-1,98.2,86.8,74.6,76.0,72.7,69.1,89,65,43,32.41,17.16,16,2,16,0.00
2012-7-2,94.9,85.3,75.7,70.7,68.3,65.8,76,58,41,32.44,24.58,16,2,16,0.00
2012-7-3,97.5,84.5,72.8,71.7,68.4,64.3,91,61,36,32.41,28.46,22,2,22,0.29
2012-7-4,74.3,74.0,72.7,70.9,70.2,70.1,93,88,87,32.41,32.41,7,1,7,0.00
2012-7-5,100.0,85.0,74.2,76.7,71.6,66.9,87,67,44,32.43,23.28,16,2,16,0.00
2012-7-6,99.1,88.8,79.4,74.3,71.4,65.7,76,58,41,32.46,22.53,12,2,12,0.00
2012-7-7,103.5,91.6,80.2,79.8,74.5,68.7,81,60,36,32.43,23.04,13,2,13,0.00
2012-7-8,102.2,87.4,77.1,80.3,75.5,72.8,89,69,49,32.43,22.53,19,2,21,0.13
2012-7-9,85.1,78.0,72.8,75.3,70.9,64.9,93,80,53,29.42,20.26,12,2,13,0.35
2012-7-10,88.5,78.3,70.8,73.5,70.0,67.0,94,77,52,32.43,23.26,12,2,12,0.09
2012-7-11,87.6,77.9,69.7,72.4,68.2,63.2,96,75,47,32.43,21.73,15,2,15,0.02
2012-7-12,88.0,78.4,67.2,68.5,64.8,62.4,90,65,44,32.43,22.48,12,2,14,0.00
2012-7-13,87.8,79.1,70.4,69.7,66.0,63.1,83,65,49,23.74,22.49,10,1,10,0.00
2012-7-14,88.8,77.2,69.9,75.7,70.5,63.5,94,81,62,30.25,23.23,17,2,17,0.40
2012-7-15,94.8,81.0,73.8,76.8,74.2,71.8,95,82,54,32.43,23.23,17,2,17,0.04
2012-7-16,96.0,83.4,72.9,77.5,73.4,69.3,89,73,53,32.43,21.76,21,2,21,0.02
2012-7-17,99.0,87.1,74.4,75.0,71.8,68.7,88,63,41,32.43,23.23,13,2,13,0.00
2012-7-18,99.9,87.0,77.5,77.7,73.3,70.8,81,65,47,32.43,23.23,22,2,22,0.00
2012-7-19,95.3,85.2,74.7,74.9,72.8,71.0,92,68,50,32.43,21.73,24,2,24,0.29
2012-7-20,81.4,75.8,70.0,74.6,72.0,67.3,94,88,78,32.43,23.23,16,2,16,0.26
2012-7-21,70.2,68.5,66.6,67.4,66.2,64.1,94,92,89,32.32,30.65,12,2,12,0.15
2012-7-22,81.9,73.7,68.3,72.8,69.7,66.7,95,88,72,32.44,22.51,7,1,7,0.01
2012-7-23,90.1,81.1,71.7,76.6,73.2,69.8,95,78,57,32.43,22.48,11,2,11,0.00
2012-7-24,93.3,82.2,73.1,77.9,73.1,69.3,89,75,59,32.43,20.23,16,3,16,0.00
2012-7-25,88.1,80.1,73.0,71.2,62.6,57.3,79,57,38,32.42,23.23,18,2,18,0.00
2012-7-26,98.2,83.0,72.5,80.8,72.7,63.7,86,72,53,31.99,22.48,17,3,17,0.00
2012-7-27,94.8,89.5,81.0,75.6,73.6,71.5,74,60,53,32.43,22.48,13,3,14,0.00
2012-7-28,94.8,82.6,72.6,75.2,72.3,70.4,94,73,49,32.43,22.48,17,2,17,0.12
2012-7-29,90.2,79.4,68.0,72.7,69.5,65.7,95,73,53,32.43,30.93,12,2,13,0.01
2012-7-30,89.1,78.7,69.7,73.9,70.8,67.7,94,78,58,32.43,31.67,15,2,17,0.00
2012-7-31,90.0,77.9,72.1,75.9,71.2,69.3,93,81,56,32.43,31.67,13,2,14,0.23
2012-8-1,92.0,78.8,69.6,73.8,70.3,66.9,93,77,51,32.43,23.26,13,2,13,0.00
2012-8-2,94.3,82.0,70.9,76.2,72.8,68.8,94,75,51,32.43,31.68,14,2,14,0.00
2012-8-3,92.8,83.1,73.7,76.2,73.2,70.2,89,73,55,32.43,30.93,13,2,13,0.00
2012-8-4,94.5,85.4,76.8,76.2,74.2,71.9,92,71,50,31.68,31.68,16,3,16,0.00
2012-8-5,94.3,82.8,75.4,76.8,74.2,70.5,93,76,52,32.39,22.51,21,4,21,0.11
2012-8-6,91.8,81.6,76.1,75.9,73.4,71.0,93,78,52,32.43,22.99,7,2,7,0.00
2012-8-7,88.6,80.6,75.0,75.8,73.1,70.8,92,79,60,32.43,23.23,9,2,10,0.00
2012-8-8,88.7,80.8,74.1,75.8,73.3,70.2,94,79,61,32.43,30.93,13,2,13,0.00
2012-8-9,95.4,82.3,72.3,77.7,71.1,65.5,94,71,48,32.43,32.43,14,2,14,0.06
2012-8-10,86.3,78.5,71.5,73.7,71.4,67.3,94,79,62,32.43,32.43,14,3,14,0.23
2012-8-11,87.3,77.0,69.4,73.2,70.3,67.2,94,81,59,32.43,30.93,14,2,14,0.47
2012-8-12,87.3,76.6,66.7,70.6,64.6,62.3,92,68,47,30.93,30.93,11,2,11,0.00
2012-8-13,89.7,78.6,67.0,71.0,66.4,63.0,88,68,47,32.43,30.93,13,2,13,0.00
2012-8-14,89.5,80.2,71.2,73.9,70.8,66.9,94,75,50,32.43,32.42,14,2,14,0.08
2012-8-15,86.5,77.9,69.6,70.6,68.3,65.9,91,73,56,32.43,32.42,12,2,12,0.00
2012-8-16,90.5,80.7,68.1,66.8,64.6,62.5,85,60,42,32.43,23.23,16,2,16,0.00
2012-8-17,90.8,79.6,70.6,70.4,67.0,63.2,87,67,48,32.44,32.44,17,3,17,0.00
2012-8-18,86.3,75.9,66.9,69.0,64.5,59.9,92,70,45,32.44,28.27,14,2,14,0.31
2012-8-19,76.1,70.3,67.0,69.2,65.8,62.0,93,86,76,31.79,28.27,6,1,6,0.08
2012-8-20,79.0,71.2,66.7,67.5,65.8,64.4,94,84,64,32.44,31.79,14,2,14,0.02
2012-8-21,85.9,73.5,63.4,66.7,64.0,61.5,94,74,49,32.44,23.24,12,2,12,0.00
2012-8-22,86.5,74.6,64.0,70.1,65.4,61.3,92,74,51,30.04,21.73,10,1,10,0.02
2012-8-23,88.0,76.5,65.7,70.9,66.3,63.9,95,73,50,30.04,22.03,10,1,10,0.01
2012-8-24,87.2,76.8,66.5,69.9,66.6,63.8,91,72,50,32.43,22.03,11,1,11,0.00
2012-8-25,81.0,73.6,69.5,69.1,67.2,64.6,91,81,62,32.44,22.48,21,2,21,0.14
2012-8-26,82.0,73.3,69.4,74.8,69.8,67.2,94,89,76,32.44,23.24,17,3,17,0.62
2012-8-27,87.8,76.1,67.8,73.6,69.9,66.3,96,83,60,32.44,23.23,12,2,12,0.00
2012-8-28,92.3,80.2,70.1,74.3,69.4,63.9,92,72,44,32.43,23.23,14,2,14,0.02
2012-8-29,88.0,76.2,66.1,65.5,63.4,61.0,85,66,45,32.43,32.43,11,1,11,0.00
2012-8-30,89.0,76.3,64.1,71.2,66.4,61.3,92,73,51,32.43,22.48,11,1,11,0.00
2012-8-31,97.3,82.3,71.6,72.7,70.7,66.1,93,72,40,25.75,22.24,15,2,15,0.00
2012-9-1,94.0,82.0,73.5,76.4,72.2,68.0,87,73,54,24.49,22.24,11,1,11,0.00
2012-9-2,85.0,77.0,73.0,77.0,72.8,70.9,95,87,69,24.49,21.73,7,1,7,0.63
2012-9-3,82.7,77.5,72.8,76.0,73.1,71.3,96,87,71,25.00,21.73,14,2,14,0.01
2012-9-4,87.7,79.2,73.0,76.8,73.7,71.1,94,84,68,32.43,23.23,18,3,18,0.00
2012-9-5,90.8,81.0,76.4,77.2,74.1,72.4,93,80,60,32.43,30.93,13,3,13,0.00
2012-9-6,85.0,77.2,71.5,76.7,73.2,68.3,94,88,68,32.43,23.23,11,2,11,0.21
2012-9-7,89.3,77.5,68.9,75.4,70.6,66.9,95,80,61,32.43,23.23,12,2,12,0.00
2012-9-8,88.3,74.3,65.5,74.4,69.8,62.2,94,87,63,32.43,23.23,25,3,25,0.66
2012-9-9,81.0,70.0,58.5,62.5,57.7,53.1,92,67,45,23.26,23.26,13,2,13,0.00
2012-9-10,77.5,66.8,59.0,57.3,53.8,51.3,79,64,41,23.26,23.26,19,2,19,0.00
2012-9-11,80.3,65.6,52.4,55.1,52.1,49.0,90,65,38,32.44,23.26,12,1,12,0.00
2012-9-12,81.4,67.4,53.9,60.3,55.6,51.0,92,69,44,32.43,30.94,16,1,16,0.00
2012-9-13,82.8,67.2,56.5,61.9,57.3,54.2,93,73,41,32.44,23.23,10,1,10,0.00
2012-9-14,84.1,69.1,58.6,67.3,61.2,56.1,95,77,53,23.25,23.25,12,1,12,0.00
2012-9-15,78.7,69.9,59.5,62.6,56.4,50.9,85,64,44,32.42,23.25,19,3,19,0.00
2012-9-16,76.9,65.6,55.2,58.5,55.2,51.1,88,70,51,32.42,17.08,9,1,9,0.00
2012-9-17,73.7,64.1,54.0,66.4,59.3,51.7,93,85,73,32.42,17.08,11,1,11,0.03
2012-9-18,78.7,70.7,66.1,72.4,68.2,62.5,95,92,80,32.42,20.04,35,4,35,1.11
2012-9-19,72.8,64.9,54.1,62.6,54.1,49.5,89,69,46,32.44,22.45,16,2,16,0.00
2012-9-20,75.7,61.3,49.8,58.4,53.0,47.5,93,76,53,32.43,22.24,11,1,11,0.00
2012-9-21,79.8,66.1,55.3,65.6,59.3,53.2,94,80,61,32.03,21.08,14,2,14,0.00
2012-9-22,84.5,72.7,64.9,68.4,63.9,57.1,89,75,56,32.49,21.49,18,3,18,0.00
2012-9-23,71.0,63.1,53.5,57.4,48.5,45.7,76,60,43,32.48,23.24,15,2,15,0.00
2012-9-24,70.2,59.8,51.2,50.0,47.6,43.9,86,66,41,32.45,23.24,16,1,16,0.00
2012-9-25,75.6,62.3,49.6,58.5,51.9,45.3,88,70,49,32.49,24.55,14,2,14,0.00
2012-9-26,83.6,71.9,63.6,67.1,62.1,57.8,87,72,56,32.45,28.67,14,3,14,0.06
2012-9-27,85.0,72.2,63.9,68.9,64.9,61.8,94,79,54,32.43,22.49,13,1,13,0.22
2012-9-28,80.3,69.1,61.3,69.2,64.1,56.0,95,85,61,32.49,24.86,18,1,18,0.48
2012-9-29,71.9,63.3,54.7,56.6,52.7,50.1,85,69,51,32.44,24.86,14,2,14,0.00
2012-9-30,73.8,60.9,50.0,55.0,51.6,47.6,93,74,48,32.42,21.73,19,2,19,0.00
2012-10-1,72.5,60.3,51.1,59.5,53.2,48.6,92,79,53,32.42,17.08,11,1,11,0.02
2012-10-2,72.5,67.0,61.6,69.8,64.8,59.0,94,92,91,32.43,17.83,8,1,8,0.74
2012-10-3,83.1,73.3,68.1,72.7,69.2,66.8,96,88,64,32.44,27.83,7,1,7,0.01
2012-10-4,81.5,73.1,64.8,71.8,67.7,57.4,95,84,61,32.43,22.69,13,1,13,0.01
2012-10-5,82.1,68.4,57.7,63.6,58.8,54.2,91,73,50,32.47,23.06,13,1,13,0.00
2012-10-6,79.6,65.2,51.5,66.1,56.5,46.2,89,74,55,32.47,24.49,21,3,21,0.00
2012-10-7,55.2,51.8,47.7,49.3,46.7,44.1,92,83,69,26.27,24.49,10,1,10,0.13
2012-10-8,54.7,48.6,42.4,46.5,43.8,40.2,93,84,65,32.43,18.59,9,1,9,0.02
2012-10-9,61.9,54.6,47.2,54.2,49.6,44.0,92,84,74,32.44,23.24,10,2,10,0.10
2012-10-10,71.3,61.9,56.1,55.2,52.7,44.5,91,73,52,32.44,32.44,20,2,20,0.00
2012-10-11,63.8,54.0,46.5,44.5,40.4,36.0,85,61,43,32.44,32.44,15,2,15,0.00
2012-10-12,67.1,51.2,42.4,48.3,42.4,38.1,93,74,47,32.44,23.24,23,2,23,0.00
2012-10-13,60.6,48.8,36.6,42.4,37.4,32.8,87,67,45,0.00,40.00,5,1,12,0.00
2012-10-14,74.4,62.1,50.3,59.4,52.3,42.2,87,71,54,24.26,24.26,21,4,21,0.00
2012-10-15,71.5,66.3,57.2,64.4,59.8,49.7,92,80,67,24.26,23.24,16,3,16,0.09
2012-10-16,66.0,56.0,46.7,49.7,46.8,43.5,90,73,50,32.44,23.24,18,2,18,0.01
2012-10-17,68.8,54.8,44.0,53.7,47.6,41.8,93,78,54,32.03,23.24,12,1,12,0.00
2012-10-18,72.3,60.5,51.8,60.1,54.8,49.5,93,82,64,24.27,24.27,17,2,17,0.01
2012-10-19,74.0,64.4,53.6,66.4,61.4,51.7,95,90,73,24.27,24.27,12,1,12,0.95
2012-10-20,68.2,56.3,47.2,54.0,48.4,43.2,98,77,52,24.27,20.22,11,1,11,0.01
2012-10-21,68.0,54.5,43.4,47.8,44.3,40.2,90,70,45,32.44,23.24,16,1,16,0.00
2012-10-22,74.3,55.6,43.7,52.8,46.0,40.9,90,73,42,32.47,23.24,11,1,11,0.00
2012-10-23,80.7,63.0,49.8,62.0,52.9,45.9,88,71,49,32.46,21.49,9,1,9,0.00
2012-10-24,85.2,68.7,56.6,62.9,57.7,53.7,91,71,42,32.44,17.08,12,0,12,0.00
2012-10-25,71.3,64.6,61.0,62.6,59.8,57.4,92,85,73,31.98,23.23,11,2,11,0.00
2012-10-26,70.1,64.8,61.6,62.6,60.4,58.8,96,86,73,32.42,21.74,10,1,10,0.01
2012-10-27,71.0,63.5,59.1,58.8,56.4,52.4,90,79,54,32.44,20.22,17,2,17,0.00
2012-10-28,61.9,58.4,53.3,54.6,50.7,45.6,92,76,60,32.45,23.20,19,3,19,0.17
2012-10-29,53.6,50.5,45.0,51.3,48.1,42.5,92,92,91,32.46,22.51,35,8,35,2.48
2012-10-30,45.2,42.6,40.7,42.7,40.3,38.6,92,92,91,32.45,20.99,27,4,27,1.23
2012-10-31,54.1,46.8,40.8,43.7,40.4,37.9,92,79,60,32.45,22.49,12,1,12,0.52
2012-11-1,53.8,46.8,40.6,41.8,39.0,36.2,87,74,61,26.15,23.24,11,1,11,0.46
2012-11-2,54.7,47.5,38.8,38.7,35.8,34.2,85,65,52,30.13,23.24,24,3,24,0.17
2012-11-3,49.6,46.6,42.9,36.0,34.2,32.1,74,62,58,30.13,30.13,20,4,20,0.09
2012-11-4,53.1,44.5,35.1,36.2,33.6,31.3,88,66,52,30.13,30.13,17,2,18,0.04
2012-11-5,50.4,43.4,34.1,33.3,31.3,28.0,78,62,51,30.13,26.52,17,3,17,0.01
2012-11-6,48.4,39.2,30.3,34.0,30.0,26.4,86,71,52,26.52,26.52,13,1,13,0.02
2012-11-7,44.8,42.1,39.8,33.5,31.3,29.4,74,65,61,26.52,26.52,16,3,16,0.02
2012-11-8,56.0,47.4,41.2,33.8,27.0,22.8,73,46,29,26.52,26.52,22,6,22,0.00
2012-11-9,58.6,48.0,38.6,40.7,36.5,31.7,83,65,49,26.52,26.52,18,3,18,0.01
2012-11-10,66.8,50.3,36.6,45.6,40.3,34.0,92,71,43,26.52,26.52,9,1,9,0.00
2012-11-11,71.2,52.9,39.5,49.4,43.7,37.4,94,74,45,26.52,26.52,13,1,13,0.00
2012-11-12,71.9,59.9,48.4,59.8,53.1,45.1,92,79,63,26.52,26.52,17,2,17,0.00
2012-11-13,64.1,46.7,38.8,59.5,39.2,28.7,92,76,54,32.46,22.27,23,5,23,0.75
2012-11-14,48.4,40.7,34.4,33.0,30.4,27.6,84,67,53,32.45,23.26,13,2,13,0.00
2012-11-15,50.9,44.6,34.7,39.0,35.5,30.3,85,70,62,23.77,22.88,7,1,7,0.01
2012-11-16,55.3,46.1,39.9,36.7,34.2,30.7,77,64,46,32.44,22.88,16,2,16,0.00
2012-11-17,56.1,44.8,34.8,35.1,31.8,28.9,80,62,39,32.44,30.75,15,1,15,0.00
2012-11-18,54.7,46.2,40.1,42.8,39.1,34.1,88,77,62,32.02,32.02,16,1,16,0.00
2012-11-19,55.7,50.0,45.2,43.6,40.9,37.0,78,71,63,32.44,23.24,17,2,17,0.00
2012-11-20,55.9,48.1,41.9,44.9,40.7,36.8,90,76,66,32.44,22.49,9,2,9,0.00
2012-11-21,59.4,45.7,37.2,40.9,36.0,31.8,93,72,39,32.43,24.55,12,1,12,0.00
2012-11-22,61.2,45.3,33.1,37.1,33.2,28.8,85,65,40,32.44,23.15,9,1,10,0.00
2012-11-23,62.2,46.7,32.2,43.5,35.3,29.2,90,67,45,32.45,20.99,25,2,25,0.00
2012-11-24,50.9,40.4,35.9,34.6,25.0,22.1,61,54,49,32.45,22.01,30,6,30,0.00
2012-11-25,43.6,36.5,30.4,26.3,23.4,21.1,76,59,49,32.45,22.49,17,2,17,0.00
2012-11-26,58.3,42.2,29.8,35.1,29.8,23.6,80,63,41,32.45,24.87,10,1,10,0.00
2012-11-27,45.0,41.7,36.8,40.3,37.0,33.1,94,83,67,32.47,23.24,17,3,17,0.06
2012-11-28,49.2,41.8,33.7,34.5,29.9,24.6,83,63,44,32.45,22.49,19,2,19,0.00
2012-11-29,51.4,39.8,29.6,31.6,28.2,24.1,82,64,44,32.47,22.01,10,1,10,0.00
2012-11-30,54.2,40.1,30.0,36.0,31.9,26.9,89,74,49,23.24,23.24,7,0,7,0.00
2012-12-1,52.8,41.6,35.3,43.5,37.2,32.2,91,84,70,23.24,23.24,11,1,11,0.00
2012-12-2,59.0,47.5,35.3,52.4,42.8,33.2,94,84,71,23.24,23.24,13,1,13,0.02
2012-12-3,72.4,58.4,48.3,58.0,51.9,46.1,93,80,60,23.24,23.24,10,0,10,0.00
2012-12-4,72.8,61.5,54.7,57.6,53.7,51.0,90,77,54,23.24,23.24,17,2,17,0.00
2012-12-5,63.0,55.8,40.2,52.5,42.2,26.6,75,61,42,23.24,23.24,22,5,22,0.01
2012-12-6,46.4,38.8,32.9,29.5,26.5,23.9,75,61,47,23.24,23.24,18,2,18,0.00
2012-12-7,50.8,43.9,36.5,47.3,38.5,29.3,93,81,72,23.24,23.24,13,1,13,0.04
2012-12-8,55.0,51.1,49.0,51.2,48.8,47.1,94,92,86,23.24,23.24,11,1,11,0.00
2012-12-9,52.9,51.0,49.4,51.0,49.0,47.3,95,93,87,23.24,23.24,16,1,16,0.09
2012-12-10,66.1,56.3,50.0,61.6,54.0,48.6,96,92,80,23.24,23.24,14,2,14,0.01
2012-12-11,61.9,47.5,42.6,57.9,37.7,30.6,87,69,56,23.24,23.24,27,5,27,0.10
2012-12-12,48.2,42.4,38.3,34.6,31.4,29.7,76,65,56,23.24,23.24,14,2,14,0.00
2012-12-13,51.4,41.5,32.7,31.5,28.6,26.0,78,61,43,23.24,23.24,14,1,14,0.00
2012-12-14,56.8,39.9,29.2,37.0,30.6,25.2,85,70,45,23.24,23.24,9,1,9,0.00
2012-12-15,55.3,44.0,35.0,40.2,34.7,30.5,84,71,51,23.24,23.24,9,1,9,0.00
2012-12-16,51.2,48.0,45.1,47.3,44.2,39.8,92,87,75,23.24,23.24,11,1,11,0.10
2012-12-17,54.9,51.4,49.5,53.2,49.2,46.9,94,92,89,23.24,23.24,10,1,10,0.05
2012-12-18,60.7,52.0,41.3,53.6,43.6,33.8,95,74,54,23.24,23.24,25,4,25,0.00
2012-12-19,55.7,45.4,34.4,41.8,36.7,31.0,89,72,59,32.45,21.11,22,2,22,0.00
2012-12-20,53.7,44.3,39.7,52.0,37.6,34.5,94,78,63,32.45,23.24,19,2,19,0.68
2012-12-21,58.0,46.4,38.8,56.0,36.8,25.0,93,70,53,32.45,23.24,29,7,29,0.38
2012-12-22,44.4,39.8,35.3,28.0,26.0,23.9,63,58,49,23.24,23.24,35,8,35,0.00
2012-12-23,47.6,36.8,27.6,28.4,25.0,21.3,78,63,43,23.24,23.24,18,2,18,0.00
2012-12-24,42.2,36.6,31.1,38.1,31.4,25.9,91,82,66,23.24,23.24,13,1,13,0.14
2012-12-25,50.6,42.4,34.8,41.8,36.4,32.5,92,80,59,32.45,23.24,19,2,19,0.00
2012-12-26,42.5,38.1,33.7,39.8,33.4,29.3,92,84,69,23.24,23.24,20,4,20,1.55
2012-12-27,42.4,38.8,36.8,35.9,31.6,27.7,92,76,62,23.24,23.24,38,8,38,0.01
2012-12-28,44.9,39.1,34.7,31.7,29.7,28.1,77,69,59,23.24,23.24,15,2,15,0.00
2012-12-29,43.6,39.6,35.4,37.5,33.1,30.4,92,78,67,23.24,23.24,28,2,28,0.15
2012-12-30,41.5,38.4,32.1,30.8,26.3,22.6,70,62,51,23.24,23.24,32,7,32,0.00
2012-12-31,41.1,35.1,28.6,28.9,25.0,21.2,76,67,57,23.24,23.24,9,1,9,0.00
2013-1-1,45.9,42.8,40.3,34.3,30.4,26.1,70,61,53,23.24,23.24,13,2,13,0.00